| time (UTC) | temp F | wind direction | speed MPH | gust MPH | rain 1hr in | rain 24hr in | rain mn in | humidity % | barometer mb |
| 20260510142118 | 58 | 347 | 8.0 | 18.0 | 0.00 | 0.00 | 0.00 | 73 | 1021.1 |
| 20260510141615 | 59 | 285 | 7.0 | 19.0 | 0.00 | 0.00 | 0.00 | 72 | 1021.1 |
| 20260510141113 | 59 | 10 | 6.0 | 14.0 | 0.00 | 0.00 | 0.00 | 74 | 1021.0 |
| 20260510140609 | 59 | 317 | 12.0 | 19.0 | 0.00 | 0.00 | 0.00 | 74 | 1021.3 |
| 20260510140109 | 59 | 57 | 9.0 | 14.0 | 0.00 | 0.00 | 0.00 | 73 | 1021.3 |
| 20260510135604 | 59 | 319 | 9.0 | 11.0 | 0.00 | 0.00 | 0.00 | 74 | 1020.8 |
| 20260510135101 | 59 | 47 | 8.0 | 22.0 | 0.00 | 0.00 | 0.00 | 73 | 1020.8 |
| 20260510134558 | 60 | 47 | 10.0 | 17.0 | 0.00 | 0.00 | 0.00 | 72 | 1020.6 |
| 20260510134055 | 60 | 79 | 5.0 | 11.0 | 0.00 | 0.00 | 0.00 | 72 | 1020.4 |
| 20260510133551 | 60 | 32 | 3.0 | 15.0 | 0.00 | 0.00 | 0.00 | 72 | 1020.4 |
| 20260510133047 | 60 | 351 | 6.0 | 16.0 | 0.00 | 0.00 | 0.00 | 72 | 1020.5 |
| 20260510132544 | 60 | 355 | 3.0 | 15.0 | 0.00 | 0.00 | 0.00 | 72 | 1020.1 |
| 20260510132040 | 60 | 3 | 3.0 | 11.0 | 0.00 | 0.00 | 0.00 | 73 | 1020.0 |
| 20260510131538 | 60 | 40 | 6.0 | 18.0 | 0.00 | 0.00 | 0.00 | 73 | 1020.0 |
| 20260510131035 | 60 | 44 | 3.0 | 16.0 | 0.00 | 0.00 | 0.00 | 72 | 1019.3 |
| 20260510130531 | 60 | 12 | 5.0 | 9.0 | 0.00 | 0.00 | 0.00 | 72 | 1019.3 |
| 20260510130029 | 60 | 33 | 2.0 | 9.0 | 0.00 | 0.00 | 0.00 | 71 | 1019.1 |
| 20260510125525 | 60 | 16 | 3.0 | 10.0 | 0.00 | 0.00 | 0.00 | 71 | 1019.2 |
| 20260510125022 | 59 | 2 | 4.0 | 7.0 | 0.00 | 0.00 | 0.00 | 70 | 1019.0 |
| 20260510124518 | 59 | 315 | 4.0 | 11.0 | 0.00 | 0.00 | 0.00 | 70 | 1018.9 |
| 20260510124015 | 59 | 333 | 11.0 | 14.0 | 0.00 | 0.00 | 0.00 | 69 | 1018.9 |
| 20260510123510 | 59 | 326 | 4.0 | 15.0 | 0.00 | 0.00 | 0.00 | 69 | 1018.8 |
| 20260510123007 | 59 | 38 | 5.0 | 8.0 | 0.00 | 0.00 | 0.00 | 69 | 1018.7 |
| 20260510122502 | 58 | 2 | 5.0 | 14.0 | 0.00 | 0.00 | 0.00 | 68 | 1018.4 |
| 20260510121959 | 58 | 2 | 5.0 | 11.0 | 0.00 | 0.00 | 0.00 | 68 | 1018.5 |
| 20260510121456 | 58 | 326 | 6.0 | 11.0 | 0.00 | 0.00 | 0.00 | 68 | 1018.4 |
| 20260510120953 | 58 | 141 | 5.0 | 8.0 | 0.00 | 0.00 | 0.00 | 68 | 1018.2 |
| 20260510120450 | 58 | 70 | 3.0 | 8.0 | 0.00 | 0.00 | 0.00 | 69 | 1018.1 |
| 20260510115946 | 58 | 329 | 3.0 | 13.0 | 0.00 | 0.00 | 0.00 | 69 | 1018.0 |
| 20260510115444 | 58 | 4 | 2.0 | 8.0 | 0.00 | 0.00 | 0.00 | 68 | 1017.9 |
| 20260510114939 | 58 | 58 | 4.0 | 10.0 | 0.00 | 0.00 | 0.00 | 68 | 1017.4 |
| 20260510114436 | 59 | 63 | 12.0 | 17.0 | 0.00 | 0.00 | 0.00 | 68 | 1017.4 |
| 20260510113932 | 59 | 64 | 6.0 | 16.0 | 0.00 | 0.00 | 0.00 | 68 | 1017.2 |
| 20260510113427 | 60 | 39 | 6.0 | 10.0 | 0.00 | 0.00 | 0.00 | 67 | 1017.5 |
| 20260510112926 | 60 | 269 | 8.0 | 11.0 | 0.00 | 0.00 | 0.00 | 71 | 1017.3 |
| 20260510112422 | 61 | 321 | 5.0 | 9.0 | 0.00 | 0.00 | 0.00 | 78 | 1017.0 |
| 20260510111918 | 61 | 24 | 8.0 | 18.0 | 0.00 | 0.00 | 0.00 | 78 | 1017.1 |
| 20260510111414 | 61 | 44 | 11.0 | 17.0 | 0.00 | 0.00 | 0.00 | 79 | 1017.3 |
| 20260510110910 | 61 | 44 | 6.0 | 16.0 | 0.00 | 0.00 | 0.00 | 79 | 1017.0 |
| 20260510110407 | 61 | 5 | 3.0 | 14.0 | 0.00 | 0.00 | 0.00 | 78 | 1017.0 |
| 20260510105902 | 62 | 53 | 9.0 | 15.0 | 0.00 | 0.00 | 0.00 | 78 | 1016.5 |
| 20260510105357 | 61 | 48 | 9.0 | 17.0 | 0.00 | 0.00 | 0.00 | 79 | 1016.7 |
| 20260510104853 | 61 | 57 | 4.0 | 13.0 | 0.00 | 0.00 | 0.00 | 79 | 1016.6 |
| 20260510104350 | 61 | 62 | 7.0 | 14.0 | 0.00 | 0.00 | 0.00 | 79 | 1016.3 |
| 20260510103846 | 61 | 31 | 2.0 | 9.0 | 0.00 | 0.00 | 0.00 | 79 | 1016.2 |
| 20260510103343 | 61 | 60 | 2.0 | 14.0 | 0.00 | 0.00 | 0.00 | 78 | 1015.9 |
| 20260510102838 | 61 | 25 | 2.0 | 6.0 | 0.00 | 0.00 | 0.00 | 77 | 1016.2 |
| 20260510102329 | 62 | 70 | 2.0 | 9.0 | 0.00 | 0.00 | 0.00 | 77 | 1015.8 |
| 20260510101827 | 62 | 50 | 6.0 | 13.0 | 0.00 | 0.00 | 0.00 | 76 | 1015.8 |
| 20260510101325 | 62 | 44 | 1.0 | 13.0 | 0.00 | 0.00 | 0.00 | 75 | 1015.8 |
| 20260510100820 | 62 | 35 | 4.0 | 7.0 | 0.00 | 0.00 | 0.00 | 75 | 1015.3 |
| 20260510100318 | 63 | 33 | 4.0 | 9.0 | 0.00 | 0.00 | 0.00 | 75 | 1014.9 |
| 20260510095814 | 63 | 54 | 4.0 | 9.0 | 0.00 | 0.00 | 0.00 | 75 | 1014.9 |
| 20260510095309 | 63 | 49 | 9.0 | 15.0 | 0.00 | 0.00 | 0.00 | 74 | 1014.9 |
| 20260510094808 | 63 | 54 | 9.0 | 11.0 | 0.00 | 0.00 | 0.00 | 74 | 1015.0 |
| 20260510094303 | 63 | 58 | 7.0 | 9.0 | 0.00 | 0.00 | 0.00 | 74 | 1014.9 |
| 20260510093800 | 64 | 58 | 9.0 | 11.0 | 0.00 | 0.00 | 0.00 | 73 | 1014.7 |
| 20260510093257 | 64 | 56 | 4.0 | 14.0 | 0.00 | 0.00 | 0.00 | 72 | 1014.6 |
| 20260510092753 | 64 | 75 | 11.0 | 15.0 | 0.00 | 0.00 | 0.00 | 72 | 1014.5 |
| 20260510092249 | 65 | 44 | 8.0 | 19.0 | 0.00 | 0.00 | 0.00 | 71 | 1014.5 |
| 20260510091745 | 64 | 63 | 7.0 | 18.0 | 0.00 | 0.00 | 0.00 | 71 | 1014.4 |
| 20260510091242 | 65 | 87 | 7.0 | 18.0 | 0.00 | 0.00 | 0.00 | 71 | 1014.4 |
| 20260510090738 | 65 | 52 | 11.0 | 14.0 | 0.00 | 0.00 | 0.00 | 69 | 1014.2 |
| 20260510090235 | 65 | 60 | 7.0 | 15.0 | 0.00 | 0.00 | 0.00 | 68 | 1014.2 |
| 20260510085730 | 65 | 47 | 11.0 | 17.0 | 0.00 | 0.00 | 0.00 | 67 | 1014.4 |
| 20260510085225 | 65 | 356 | 9.0 | 17.0 | 0.00 | 0.00 | 0.00 | 66 | 1014.5 |
| 20260510084721 | 66 | 46 | 5.0 | 9.0 | 0.00 | 0.00 | 0.00 | 64 | 1014.1 |
| 20260510084219 | 66 | 77 | 6.0 | 13.0 | 0.00 | 0.00 | 0.00 | 62 | 1014.2 |
| 20260510083716 | 67 | 63 | 6.0 | 11.0 | 0.00 | 0.00 | 0.00 | 60 | 1014.0 |
| 20260510083213 | 67 | 36 | 11.0 | 16.0 | 0.00 | 0.00 | 0.00 | 59 | 1013.8 |
| 20260510082708 | 67 | 44 | 6.0 | 14.0 | 0.00 | 0.00 | 0.00 | 57 | 1013.7 |
| 20260510082205 | 67 | 54 | 8.0 | 14.0 | 0.00 | 0.00 | 0.00 | 56 | 1013.8 |
| 20260510081705 | 67 | 73 | 8.0 | 11.0 | 0.00 | 0.00 | 0.00 | 53 | 1013.8 |
| 20260510081201 | 67 | 57 | 6.0 | 10.0 | 0.00 | 0.00 | 0.00 | 48 | 1013.9 |
| 20260510080700 | 68 | 61 | 10.0 | 15.0 | 0.00 | 0.00 | 0.00 | 44 | 1013.7 |
| 20260510080157 | 69 | 41 | 9.0 | 11.0 | 0.00 | 0.00 | 0.00 | 38 | 1013.5 |
| 20260510075654 | 70 | 52 | 9.0 | 16.0 | 0.00 | 0.00 | 0.00 | 34 | 1013.6 |
| 20260510075152 | 70 | 52 | 9.0 | 18.0 | 0.00 | 0.00 | 0.00 | 31 | 1013.6 |
| 20260510074649 | 70 | 87 | 8.0 | 11.0 | 0.00 | 0.00 | 0.00 | 26 | 1013.6 |
| 20260510074144 | 71 | 59 | 8.0 | 14.0 | 0.00 | 0.00 | 0.00 | 25 | 1013.7 |
| 20260510073641 | 70 | 42 | 7.0 | 11.0 | 0.00 | 0.00 | 0.00 | 24 | 1013.7 |
| 20260510073137 | 72 | 45 | 7.0 | 14.0 | 0.00 | 0.00 | 0.00 | 23 | 1013.9 |
| 20260510072633 | 71 | 355 | 2.0 | 8.0 | 0.00 | 0.00 | 0.00 | 23 | 1013.9 |
| 20260510072130 | 73 | 330 | 3.0 | 4.0 | 0.00 | 0.00 | 0.00 | 22 | 1013.9 |
| 20260510071626 | 71 | 66 | 3.0 | 9.0 | 0.00 | 0.00 | 0.00 | 22 | 1014.2 |
| 20260510071124 | 70 | 1 | 2.0 | 3.0 | 0.00 | 0.00 | 0.00 | 23 | 1014.4 |
| 20260510070621 | 71 | 57 | 5.0 | 8.0 | 0.00 | 0.00 | 0.00 | 22 | 1014.1 |
| 20260510070118 | 69 | 14 | 1.0 | 8.0 | 0.00 | 0.00 | 0.00 | 23 | 1014.1 |
| 20260510065614 | 73 | 349 | 1.0 | 6.0 | 0.00 | 0.00 | 0.00 | 21 | 1014.0 |
| 20260510065110 | 73 | 97 | 6.0 | 7.0 | 0.00 | 0.00 | 0.00 | 21 | 1013.8 |
| 20260510064606 | 72 | 125 | 4.0 | 4.0 | 0.00 | 0.00 | 0.00 | 21 | 1013.9 |
| 20260510064104 | 73 | 160 | 0.0 | 4.0 | 0.00 | 0.00 | 0.00 | 21 | 1013.6 |
| 20260510063600 | 73 | 123 | 2.0 | 6.0 | 0.00 | 0.00 | 0.00 | 21 | 1013.6 |
| 20260510063058 | 72 | 111 | 2.0 | 6.0 | 0.00 | 0.00 | 0.00 | 21 | 1013.6 |
| 20260510062553 | 72 | 132 | 4.0 | 8.0 | 0.00 | 0.00 | 0.00 | 21 | 1013.2 |
| 20260510062048 | 72 | 101 | 4.0 | 6.0 | 0.00 | 0.00 | 0.00 | 21 | 1013.3 |
| 20260510061545 | 73 | 111 | 3.0 | 3.0 | 0.00 | 0.00 | 0.00 | 21 | 1013.2 |
| 20260510061042 | 74 | 166 | 3.0 | 4.0 | 0.00 | 0.00 | 0.00 | 20 | 1013.5 |
| 20260510060538 | 75 | 97 | 4.0 | 6.0 | 0.00 | 0.00 | 0.00 | 20 | 1013.5 |
| 20260510060035 | 73 | 145 | 3.0 | 4.0 | 0.00 | 0.00 | 0.00 | 20 | 1013.3 |
| 20260510055531 | 73 | 195 | 0.0 | 3.0 | 0.00 | 0.00 | 0.00 | 21 | 1013.6 |
| 20260510055029 | 72 | 153 | 0.0 | 0.0 | 0.00 | 0.00 | 0.00 | 21 | 1013.3 |
| 20260510054525 | 73 | 153 | 0.0 | 0.0 | 0.00 | 0.00 | 0.00 | 21 | 1013.2 |
| 20260510054020 | 72 | 165 | 2.0 | 3.0 | 0.00 | 0.00 | 0.00 | 21 | 1013.1 |
| 20260510053515 | 72 | 138 | 0.0 | 0.0 | 0.00 | 0.00 | 0.00 | 23 | 1013.2 |
| 20260510053012 | 73 | 136 | 0.0 | 0.0 | 0.00 | 0.00 | 0.00 | 22 | 1013.1 |
| 20260510052508 | 73 | 138 | 1.0 | 1.0 | 0.00 | 0.00 | 0.00 | 21 | 1013.2 |
| 20260510052004 | 75 | 219 | 1.0 | 2.0 | 0.00 | 0.00 | 0.00 | 20 | 1013.2 |
| 20260510051459 | 75 | 280 | 0.0 | 0.0 | 0.00 | 0.00 | 0.00 | 20 | 1013.2 |
| 20260510050956 | 76 | 253 | 1.0 | 2.0 | 0.00 | 0.00 | 0.00 | 20 | 1013.3 |
| 20260510050454 | 76 | 114 | 1.0 | 2.0 | 0.00 | 0.00 | 0.00 | 19 | 1013.3 |
| 20260510045950 | 77 | 78 | 2.0 | 3.0 | 0.00 | 0.00 | 0.00 | 18 | 1013.2 |
| 20260510045448 | 77 | 100 | 0.0 | 1.0 | 0.00 | 0.00 | 0.00 | 18 | 1013.6 |
| 20260510044944 | 76 | 70 | 2.0 | 3.0 | 0.00 | 0.00 | 0.00 | 18 | 1013.3 |
| 20260510044441 | 75 | 322 | 0.0 | 3.0 | 0.00 | 0.00 | 0.00 | 19 | 1013.5 |
| 20260510043938 | 73 | 0 | 2.0 | 3.0 | 0.00 | 0.00 | 0.00 | 20 | 1013.6 |
| 20260510043434 | 73 | 8 | 1.0 | 2.0 | 0.00 | 0.00 | 0.00 | 20 | 1013.2 |
| 20260510042932 | 71 | 337 | 3.0 | 4.0 | 0.00 | 0.00 | 0.00 | 21 | 1013.0 |
| 20260510042428 | 70 | 0 | 1.0 | 2.0 | 0.00 | 0.00 | 0.00 | 22 | 1013.1 |
| 20260510041924 | 69 | 240 | 0.0 | 0.0 | 0.00 | 0.00 | 0.00 | 24 | 1012.8 |
| 20260510041421 | 70 | 240 | 0.0 | 0.0 | 0.00 | 0.00 | 0.00 | 24 | 1012.8 |
| 20260510040919 | 70 | 240 | 0.0 | 0.0 | 0.00 | 0.00 | 0.00 | 23 | 1012.9 |
| 20260510040415 | 70 | 240 | 0.0 | 0.0 | 0.00 | 0.00 | 0.00 | 23 | 1012.7 |
| 20260510035911 | 71 | 240 | 0.0 | 0.0 | 0.00 | 0.00 | 0.00 | 23 | 1012.8 |
| 20260510035408 | 72 | 240 | 0.0 | 0.0 | 0.00 | 0.00 | 0.00 | 22 | 1012.6 |
| 20260510034902 | 72 | 240 | 0.0 | 0.0 | 0.00 | 0.00 | 0.00 | 22 | 1012.8 |
| 20260510034401 | 72 | 240 | 0.0 | 0.0 | 0.00 | 0.00 | 0.00 | 21 | 1012.6 |
| 20260510033857 | 72 | 240 | 0.0 | 0.0 | 0.00 | 0.00 | 0.00 | 21 | 1012.7 |
| 20260510033354 | 73 | 240 | 0.0 | 0.0 | 0.00 | 0.00 | 0.00 | 21 | 1012.7 |
| 20260510032850 | 73 | 240 | 0.0 | 0.0 | 0.00 | 0.00 | 0.00 | 20 | 1012.8 |
| 20260510032347 | 74 | 305 | 0.0 | 0.0 | 0.00 | 0.00 | 0.00 | 20 | 1012.6 |
| 20260510031837 | 74 | 305 | 0.0 | 0.0 | 0.00 | 0.00 | 0.00 | 20 | 1012.4 |
| 20260510031333 | 74 | 284 | 0.0 | 0.0 | 0.00 | 0.00 | 0.00 | 20 | 1012.7 |
| 20260510030833 | 74 | 282 | 0.0 | 0.0 | 0.00 | 0.00 | 0.00 | 20 | 1012.2 |
| 20260510030329 | 75 | 263 | 0.0 | 0.0 | 0.00 | 0.00 | 0.00 | 19 | 1012.3 |
| 20260510025827 | 76 | 255 | 0.0 | 3.0 | 0.00 | 0.00 | 0.00 | 19 | 1012.1 |
| 20260510025324 | 75 | 236 | 1.0 | 3.0 | 0.00 | 0.00 | 0.00 | 19 | 1012.1 |
| 20260510024821 | 75 | 254 | 0.0 | 3.0 | 0.00 | 0.00 | 0.00 | 19 | 1011.8 |
| 20260510024318 | 75 | 245 | 0.0 | 0.0 | 0.00 | 0.00 | 0.00 | 19 | 1012.0 |
| 20260510023814 | 75 | 238 | 1.0 | 2.0 | 0.00 | 0.00 | 0.00 | 19 | 1011.9 |
| 20260510023310 | 76 | 266 | 0.0 | 0.0 | 0.00 | 0.00 | 0.00 | 19 | 1011.6 |
| 20260510022808 | 77 | 226 | 0.0 | 0.0 | 0.00 | 0.00 | 0.00 | 18 | 1011.6 |
| 20260510022307 | 78 | 277 | 0.0 | 0.0 | 0.00 | 0.00 | 0.00 | 18 | 1011.6 |
| 20260510021806 | 78 | 219 | 0.0 | 2.0 | 0.00 | 0.00 | 0.00 | 18 | 1011.6 |
| 20260510021304 | 78 | 222 | 0.0 | 0.0 | 0.00 | 0.00 | 0.00 | 17 | 1011.6 |
| 20260510020800 | 79 | 217 | 2.0 | 3.0 | 0.00 | 0.00 | 0.00 | 17 | 1011.6 |
| 20260510020259 | 80 | 242 | 2.0 | 3.0 | 0.00 | 0.00 | 0.00 | 17 | 1011.5 |
| 20260510015755 | 80 | 215 | 5.0 | 9.0 | 0.00 | 0.00 | 0.00 | 17 | 1011.5 |
| 20260510015252 | 81 | 160 | 3.0 | 7.0 | 0.00 | 0.00 | 0.00 | 16 | 1011.4 |
| 20260510014747 | 82 | 234 | 5.0 | 7.0 | 0.00 | 0.00 | 0.00 | 16 | 1011.5 |
| 20260510014245 | 83 | 278 | 4.0 | 8.0 | 0.00 | 0.00 | 0.00 | 15 | 1011.2 |
| 20260510013741 | 82 | 262 | 2.0 | 8.0 | 0.00 | 0.00 | 0.00 | 16 | 1011.0 |
| 20260510013237 | 82 | 178 | 4.0 | 6.0 | 0.00 | 0.00 | 0.00 | 16 | 1011.3 |
| 20260510012737 | 82 | 209 | 2.0 | 7.0 | 0.00 | 0.00 | 0.00 | 16 | 1011.4 |
| 20260510012232 | 82 | 258 | 1.0 | 6.0 | 0.00 | 0.00 | 0.00 | 16 | 1011.5 |
| 20260510011732 | 83 | 240 | 2.0 | 7.0 | 0.00 | 0.00 | 0.00 | 16 | 1011.5 |
| 20260510011228 | 83 | 280 | 2.0 | 4.0 | 0.00 | 0.00 | 0.00 | 16 | 1011.3 |
| 20260510010725 | 83 | 147 | 5.0 | 13.0 | 0.00 | 0.00 | 0.00 | 15 | 1011.4 |
| 20260510010221 | 84 | 250 | 2.0 | 9.0 | 0.00 | 0.00 | 0.00 | 15 | 1011.3 |
| 20260510005718 | 85 | 322 | 5.0 | 8.0 | 0.00 | 0.00 | 0.00 | 14 | 1011.4 |
| 20260510005214 | 86 | 239 | 6.0 | 11.0 | 0.00 | 0.00 | 0.00 | 14 | 1011.3 |
| 20260510004713 | 87 | 245 | 4.0 | 8.0 | 0.00 | 0.00 | 0.00 | 14 | 1011.4 |
| 20260510004211 | 87 | 291 | 3.0 | 4.0 | 0.00 | 0.00 | 0.00 | 14 | 1011.2 |
| 20260510003708 | 87 | 259 | 1.0 | 8.0 | 0.00 | 0.00 | 0.00 | 14 | 1011.2 |
| 20260510003203 | 88 | 215 | 6.0 | 10.0 | 0.00 | 0.00 | 0.00 | 14 | 1011.3 |
| 20260510002657 | 87 | 262 | 4.0 | 9.0 | 0.00 | 0.00 | 0.00 | 14 | 1011.2 |
| 20260510002155 | 87 | 237 | 3.0 | 11.0 | 0.00 | 0.00 | 0.00 | 14 | 1011.2 |
| 20260510001652 | 87 | 279 | 6.0 | 13.0 | 0.00 | 0.00 | 0.00 | 14 | 1011.5 |
| 20260510001150 | 87 | 238 | 2.0 | 8.0 | 0.00 | 0.00 | 0.00 | 14 | 1011.0 |
| 20260510000645 | 87 | 197 | 1.0 | 3.0 | 0.00 | 0.00 | 0.00 | 14 | 1011.3 |
| 20260510000143 | 87 | 180 | 7.0 | 9.0 | 0.00 | 0.00 | 0.00 | 14 | 1011.6 |
| 20260509235639 | 86 | 60 | 3.0 | 14.0 | 0.00 | 0.00 | 0.00 | 14 | 1011.4 |
| 20260509235136 | 88 | 219 | 9.0 | 15.0 | 0.00 | 0.00 | 0.00 | 14 | 1011.1 |
| 20260509234631 | 88 | 261 | 3.0 | 9.0 | 0.00 | 0.00 | 0.00 | 13 | 1011.1 |
| 20260509234129 | 88 | 257 | 4.0 | 10.0 | 0.00 | 0.00 | 0.00 | 13 | 1011.2 |
| 20260509233627 | 89 | 236 | 4.0 | 11.0 | 0.00 | 0.00 | 0.00 | 13 | 1011.0 |
| 20260509233124 | 89 | 267 | 4.0 | 8.0 | 0.00 | 0.00 | 0.00 | 13 | 1011.2 |
| 20260509232620 | 91 | 271 | 2.0 | 7.0 | 0.00 | 0.00 | 0.00 | 12 | 1011.0 |
| 20260509232117 | 91 | 242 | 3.0 | 9.0 | 0.00 | 0.00 | 0.00 | 12 | 1011.0 |
| 20260509231614 | 92 | 202 | 1.0 | 4.0 | 0.00 | 0.00 | 0.00 | 12 | 1010.9 |
| 20260509231112 | 91 | 271 | 4.0 | 9.0 | 0.00 | 0.00 | 0.00 | 12 | 1010.9 |
| 20260509230608 | 91 | 310 | 3.0 | 8.0 | 0.00 | 0.00 | 0.00 | 12 | 1011.2 |
| 20260509230106 | 91 | 188 | 2.0 | 4.0 | 0.00 | 0.00 | 0.00 | 12 | 1011.1 |
| 20260509225601 | 92 | 216 | 0.0 | 6.0 | 0.00 | 0.00 | 0.00 | 11 | 1011.2 |
| 20260509225056 | 91 | 296 | 3.0 | 6.0 | 0.00 | 0.00 | 0.00 | 12 | 1011.1 |
| 20260509224552 | 91 | 271 | 6.0 | 9.0 | 0.00 | 0.00 | 0.00 | 12 | 1011.0 |
| 20260509224050 | 90 | 64 | 5.0 | 8.0 | 0.00 | 0.00 | 0.00 | 11 | 1011.1 |
| 20260509223546 | 92 | 315 | 2.0 | 6.0 | 0.00 | 0.00 | 0.00 | 11 | 1011.3 |
| 20260509223044 | 91 | 308 | 2.0 | 4.0 | 0.00 | 0.00 | 0.00 | 11 | 1011.4 |
| 20260509222540 | 92 | 270 | 2.0 | 6.0 | 0.00 | 0.00 | 0.00 | 11 | 1011.1 |
| 20260509222036 | 92 | 226 | 3.0 | 7.0 | 0.00 | 0.00 | 0.00 | 11 | 1011.4 |
| 20260509221532 | 93 | 337 | 4.0 | 10.0 | 0.00 | 0.00 | 0.00 | 11 | 1011.3 |
| 20260509221028 | 93 | 229 | 4.0 | 7.0 | 0.00 | 0.00 | 0.00 | 10 | 1011.4 |
| 20260509220524 | 91 | 192 | 3.0 | 6.0 | 0.00 | 0.00 | 0.00 | 11 | 1011.8 |
| 20260509220020 | 92 | 285 | 7.0 | 10.0 | 0.00 | 0.00 | 0.00 | 11 | 1011.9 |
| 20260509215515 | 93 | 304 | 5.0 | 7.0 | 0.00 | 0.00 | 0.00 | 10 | 1011.6 |
| 20260509215013 | 94 | 331 | 7.0 | 10.0 | 0.00 | 0.00 | 0.00 | 11 | 1011.5 |
| 20260509214510 | 93 | 245 | 3.0 | 10.0 | 0.00 | 0.00 | 0.00 | 11 | 1011.8 |
| 20260509214007 | 92 | 281 | 8.0 | 14.0 | 0.00 | 0.00 | 0.00 | 11 | 1011.9 |
| 20260509213503 | 92 | 263 | 6.0 | 13.0 | 0.00 | 0.00 | 0.00 | 10 | 1011.9 |
| 20260509213000 | 92 | 40 | 4.0 | 10.0 | 0.00 | 0.00 | 0.00 | 11 | 1012.1 |
| 20260509212457 | 92 | 345 | 8.0 | 16.0 | 0.00 | 0.00 | 0.00 | 11 | 1012.0 |
| 20260509211954 | 91 | 310 | 11.0 | 15.0 | 0.00 | 0.00 | 0.00 | 11 | 1012.3 |
| 20260509211449 | 89 | 338 | 5.0 | 17.0 | 0.00 | 0.00 | 0.00 | 11 | 1012.2 |
| 20260509210946 | 92 | 277 | 6.0 | 14.0 | 0.00 | 0.00 | 0.00 | 11 | 1012.3 |
| 20260509210443 | 92 | 335 | 4.0 | 17.0 | 0.00 | 0.00 | 0.00 | 11 | 1012.6 |
| 20260509205939 | 91 | 313 | 4.0 | 14.0 | 0.00 | 0.00 | 0.00 | 11 | 1012.7 |
| 20260509205433 | 91 | 240 | 5.0 | 14.0 | 0.00 | 0.00 | 0.00 | 11 | 1012.7 |
| 20260509204929 | 92 | 327 | 6.0 | 13.0 | 0.00 | 0.00 | 0.00 | 11 | 1012.8 |
| 20260509204426 | 93 | 11 | 5.0 | 8.0 | 0.00 | 0.00 | 0.00 | 11 | 1012.7 |
| 20260509203923 | 92 | 217 | 1.0 | 9.0 | 0.00 | 0.00 | 0.00 | 11 | 1012.9 |
| 20260509203418 | 91 | 236 | 9.0 | 11.0 | 0.00 | 0.00 | 0.00 | 11 | 1013.1 |
| 20260509202916 | 90 | 316 | 12.0 | 18.0 | 0.00 | 0.00 | 0.00 | 11 | 1013.0 |
| 20260509202412 | 90 | 308 | 8.0 | 9.0 | 0.00 | 0.00 | 0.00 | 11 | 1013.1 |
| 20260509201907 | 89 | 323 | 4.0 | 8.0 | 0.00 | 0.00 | 0.00 | 13 | 1013.2 |
| 20260509201403 | 90 | 314 | 10.0 | 17.0 | 0.00 | 0.00 | 0.00 | 12 | 1013.3 |
| 20260509200900 | 91 | 302 | 4.0 | 13.0 | 0.00 | 0.00 | 0.00 | 11 | 1013.5 |
| 20260509200400 | 91 | 316 | 6.0 | 10.0 | 0.00 | 0.00 | 0.00 | 12 | 1013.6 |
| 20260509195857 | 91 | 347 | 8.0 | 13.0 | 0.00 | 0.00 | 0.00 | 11 | 1013.6 |
| 20260509195357 | 89 | 295 | 4.0 | 11.0 | 0.00 | 0.00 | 0.00 | 12 | 1013.5 |
| 20260509194856 | 89 | 272 | 4.0 | 9.0 | 0.00 | 0.00 | 0.00 | 13 | 1013.6 |
| 20260509194353 | 89 | 111 | 2.0 | 13.0 | 0.00 | 0.00 | 0.00 | 12 | 1013.8 |
| 20260509193850 | 91 | 296 | 9.0 | 13.0 | 0.00 | 0.00 | 0.00 | 12 | 1013.8 |
| 20260509193349 | 92 | 321 | 11.0 | 17.0 | 0.00 | 0.00 | 0.00 | 12 | 1013.6 |
| 20260509192846 | 91 | 235 | 3.0 | 9.0 | 0.00 | 0.00 | 0.00 | 12 | 1013.8 |
| 20260509192342 | 92 | 223 | 8.0 | 13.0 | 0.00 | 0.00 | 0.00 | 13 | 1013.9 |
| 20260509191837 | 89 | 269 | 3.0 | 7.0 | 0.00 | 0.00 | 0.00 | 13 | 1013.7 |
| 20260509191333 | 90 | 352 | 10.0 | 15.0 | 0.00 | 0.00 | 0.00 | 12 | 1013.9 |
| 20260509190829 | 90 | 232 | 3.0 | 8.0 | 0.00 | 0.00 | 0.00 | 12 | 1013.8 |
| 20260509190326 | 89 | 303 | 9.0 | 11.0 | 0.00 | 0.00 | 0.00 | 14 | 1013.9 |
| 20260509185824 | 90 | 316 | 6.0 | 10.0 | 0.00 | 0.00 | 0.00 | 13 | 1014.1 |
| 20260509185320 | 90 | 255 | 6.0 | 11.0 | 0.00 | 0.00 | 0.00 | 12 | 1014.2 |
| 20260509184818 | 89 | 285 | 4.0 | 9.0 | 0.00 | 0.00 | 0.00 | 13 | 1014.4 |
| 20260509184315 | 89 | 320 | 3.0 | 11.0 | 0.00 | 0.00 | 0.00 | 14 | 1014.4 |
| 20260509183811 | 89 | 244 | 4.0 | 6.0 | 0.00 | 0.00 | 0.00 | 14 | 1014.2 |
| 20260509183306 | 89 | 207 | 4.0 | 11.0 | 0.00 | 0.00 | 0.00 | 15 | 1014.5 |
| 20260509182802 | 89 | 266 | 2.0 | 10.0 | 0.00 | 0.00 | 0.00 | 15 | 1014.5 |
| 20260509182300 | 90 | 253 | 4.0 | 6.0 | 0.00 | 0.00 | 0.00 | 15 | 1014.5 |
| 20260509181757 | 88 | 288 | 2.0 | 14.0 | 0.00 | 0.00 | 0.00 | 15 | 1014.6 |
| 20260509181254 | 88 | 271 | 7.0 | 9.0 | 0.00 | 0.00 | 0.00 | 16 | 1014.6 |
| 20260509180752 | 88 | 314 | 10.0 | 16.0 | 0.00 | 0.00 | 0.00 | 16 | 1014.7 |
| 20260509180248 | 87 | 260 | 4.0 | 9.0 | 0.00 | 0.00 | 0.00 | 17 | 1014.9 |
| 20260509175744 | 87 | 259 | 2.0 | 7.0 | 0.00 | 0.00 | 0.00 | 18 | 1015.0 |
| 20260509175241 | 88 | 261 | 6.0 | 10.0 | 0.00 | 0.00 | 0.00 | 19 | 1014.8 |
| 20260509174737 | 87 | 262 | 4.0 | 6.0 | 0.00 | 0.00 | 0.00 | 19 | 1015.2 |
| 20260509174232 | 87 | 243 | 7.0 | 10.0 | 0.00 | 0.00 | 0.00 | 19 | 1015.2 |
| 20260509173728 | 87 | 299 | 2.0 | 10.0 | 0.00 | 0.00 | 0.00 | 19 | 1015.0 |
| 20260509173224 | 86 | 300 | 2.0 | 8.0 | 0.00 | 0.00 | 0.00 | 19 | 1015.4 |
| 20260509172720 | 86 | 244 | 3.0 | 8.0 | 0.00 | 0.00 | 0.00 | 18 | 1015.3 |
| 20260509172217 | 86 | 287 | 6.0 | 11.0 | 0.00 | 0.00 | 0.00 | 18 | 1015.4 |
| 20260509171712 | 86 | 129 | 5.0 | 9.0 | 0.00 | 0.00 | 0.00 | 19 | 1015.5 |
| 20260509171209 | 86 | 238 | 5.0 | 11.0 | 0.00 | 0.00 | 0.00 | 19 | 1015.5 |
| 20260509170706 | 85 | 253 | 5.0 | 9.0 | 0.00 | 0.00 | 0.00 | 19 | 1015.5 |
| 20260509170202 | 84 | 290 | 8.0 | 14.0 | 0.00 | 0.00 | 0.00 | 19 | 1015.7 |
| 20260509165700 | 85 | 295 | 4.0 | 9.0 | 0.00 | 0.00 | 0.00 | 19 | 1015.6 |
| 20260509165156 | 84 | 274 | 6.0 | 11.0 | 0.00 | 0.00 | 0.00 | 20 | 1015.7 |
| 20260509164652 | 84 | 36 | 6.0 | 10.0 | 0.00 | 0.00 | 0.00 | 20 | 1015.9 |
| 20260509164148 | 82 | 292 | 3.0 | 7.0 | 0.00 | 0.00 | 0.00 | 21 | 1015.9 |
| 20260509163645 | 81 | 246 | 3.0 | 13.0 | 0.00 | 0.00 | 0.00 | 23 | 1015.8 |
| 20260509163141 | 81 | 182 | 4.0 | 8.0 | 0.00 | 0.00 | 0.00 | 22 | 1015.8 |
| 20260509162639 | 81 | 222 | 4.0 | 11.0 | 0.00 | 0.00 | 0.00 | 23 | 1015.8 |
| 20260509162134 | 80 | 225 | 8.0 | 13.0 | 0.00 | 0.00 | 0.00 | 23 | 1015.7 |
| 20260509161631 | 80 | 283 | 3.0 | 9.0 | 0.00 | 0.00 | 0.00 | 24 | 1015.7 |
| 20260509161126 | 79 | 230 | 3.0 | 9.0 | 0.00 | 0.00 | 0.00 | 24 | 1015.7 |
| 20260509160622 | 79 | 153 | 7.0 | 11.0 | 0.00 | 0.00 | 0.00 | 24 | 1015.8 |
| 20260509160117 | 78 | 238 | 4.0 | 8.0 | 0.00 | 0.00 | 0.00 | 25 | 1015.7 |
| 20260509155614 | 78 | 238 | 6.0 | 8.0 | 0.00 | 0.00 | 0.00 | 25 | 1015.9 |
| 20260509155110 | 77 | 192 | 9.0 | 11.0 | 0.00 | 0.00 | 0.00 | 26 | 1015.9 |
| 20260509154606 | 77 | 198 | 9.0 | 11.0 | 0.00 | 0.00 | 0.00 | 26 | 1016.1 |
| 20260509154104 | 76 | 213 | 8.0 | 10.0 | 0.00 | 0.00 | 0.00 | 28 | 1015.9 |
| 20260509153600 | 76 | 89 | 3.0 | 8.0 | 0.00 | 0.00 | 0.00 | 29 | 1016.1 |
| 20260509153057 | 74 | 145 | 2.0 | 7.0 | 0.00 | 0.00 | 0.00 | 29 | 1016.3 |
| 20260509152553 | 74 | 131 | 4.0 | 15.0 | 0.00 | 0.00 | 0.00 | 30 | 1016.3 |
| 20260509152051 | 72 | 174 | 7.0 | 11.0 | 0.00 | 0.00 | 0.00 | 33 | 1016.3 |
| 20260509151546 | 72 | 154 | 6.0 | 10.0 | 0.00 | 0.00 | 0.00 | 32 | 1016.1 |
| 20260509151044 | 70 | 175 | 6.0 | 13.0 | 0.00 | 0.00 | 0.00 | 35 | 1016.2 |
| 20260509150542 | 71 | 186 | 7.0 | 10.0 | 0.00 | 0.00 | 0.00 | 35 | 1016.3 |
| 20260509150040 | 70 | 172 | 7.0 | 10.0 | 0.00 | 0.00 | 0.00 | 36 | 1016.3 |
| 20260509145536 | 69 | 172 | 5.0 | 11.0 | 0.00 | 0.00 | 0.00 | 37 | 1016.5 |
| 20260509145031 | 68 | 161 | 7.0 | 13.0 | 0.00 | 0.00 | 0.00 | 40 | 1016.2 |
| 20260509144528 | 67 | 184 | 6.0 | 11.0 | 0.00 | 0.00 | 0.00 | 41 | 1016.5 |
| 20260509144025 | 67 | 155 | 8.0 | 14.0 | 0.00 | 0.00 | 0.00 | 42 | 1016.5 |
| 20260509143522 | 67 | 171 | 5.0 | 8.0 | 0.00 | 0.00 | 0.00 | 43 | 1016.7 |
| 20260509143020 | 66 | 143 | 6.0 | 11.0 | 0.00 | 0.00 | 0.00 | 45 | 1016.6 |
| 20260509142515 | 65 | 174 | 5.0 | 11.0 | 0.00 | 0.00 | 0.00 | 47 | 1016.6 |